Regional Weather Roundup
Issued by NWS Kansas City/Pleasant Hill, MO

Home | Current Version | Previous Version | Text Only | Print | Product List | Glossary On
Versions: 1 2 3 4 5 6 7 8 9 10 11 12 13 14 15 16 17 18 19 20 21 22 23 24 25 26 27 28
000
ASUS43 KEAX 231210
RWREAX

WEATHER ROUNDUP FOR EASTERN KANSAS AND NORTHWEST MISSOURI
NATIONAL WEATHER SERVICE KANSAS CITY/PLEASANT HILL MO
600 AM CST THU NOV 23 2017

KSZ040-057-103>105-MOZ028-029-037-043-231300-
...KANSAS CITY METROPOLITAN AREA...

CITY           SKY/WX    TMP DP  RH WIND       PRES   REMARKS
K.C. INTL      CLEAR     35  22  58 SW10      30.05R WCI  27
6HR MIN TEMP:  35; 6HR MAX TEMP:  37;

K.C. DOWNTOWN  CLEAR     38  21  50 SW8       30.06R WCI  32
6HR MIN TEMP:  36; 6HR MAX TEMP:  39;

LEES SUMMIT    CLEAR     35  22  58 SW9       30.07R WCI  28
6HR MIN TEMP:  34; 6HR MAX TEMP:  37;

OLATHE - IXD   CLEAR     35  22  58 SW10      30.07R WCI  27
6HR MIN TEMP:  31; 6HR MAX TEMP:  37;

OLATHE - OJC   CLEAR     33  22  63 SW9       30.06S WCI  25
6HR MIN TEMP:  31; 6HR MAX TEMP:  35; 6HR PCP: TRACE;

LAWRENCE       CLEAR     30  23  75 CALM      30.07R

$$

MOZ001>008-011>017-020>025-030>033-038>040-044>046-053-054-231300-
...NORTHERN AND CENTRAL MISSOURI...

CITY           SKY/WX    TMP DP  RH WIND       PRES   REMARKS
ST. JOSEPH     CLEAR     31  23  72 S3        30.04F
6HR MIN TEMP:  30; 6HR MAX TEMP:  35;

MOSBY          SUNNY     32  23  69 CALM      30.06S
WARRENSBURG    CLEAR     32  23  69 S9        30.08R WCI  24
WHITEMAN AFB   CLEAR     32  22  68 S8        30.04R WCI  24
6HR MIN TEMP:  29; 6HR MAX TEMP:  32;

CLINTON        CLEAR     34  23  64 MISG      30.10S
SEDALIA        CLEAR     37  24  59 SW15      30.08F WCI  28
6HR MIN TEMP:  30; 6HR MAX TEMP:  37;

WARSAW         NOT AVBL
CHILLICOTHE      N/A     30  22  72 S6        30.04F WCI  24
6HR MIN TEMP:  30; 6HR MAX TEMP:  33;

KIRKSVILLE     CLEAR     33  22  63 SW9       30.03S WCI  25
6HR MIN TEMP:  30; 6HR MAX TEMP:  36;


$$

MOZ041-047>049-056>058-063>065-088>090-097-231300-
...EASTERN AND SOUTHERN MISSOURI...

CITY           SKY/WX    TMP DP  RH WIND       PRES   REMARKS
ST. LOUIS INTL PTCLDY    32  21  64 S5        30.12F WCI  27
6HR MIN TEMP:  32; 6HR MAX TEMP:  35;

SPIRIT OF STL  CLEAR     27  22  81 CALM      30.12F
COLUMBIA       CLEAR     28  20  71 S6        30.08F WCI  22
JEFFERSON CITY CLEAR     32  18  56 E5        30.11F WCI  27
ROLLA          CLEAR     31  16  54 S10       30.10F WCI  22
OSAGE BEACH    CLEAR     28  20  71 S3        30.11F
SPRINGFIELD    CLEAR     31  25  78 S6        30.12F WCI  25
BRANSON        CLEAR     32  19  59 CALM      30.15F
JOPLIN         CLEAR     31  24  75 S7        30.13F WCI  24
WEST PLAINS    CLOUDY    25  19  78 SW3       30.14F

$$

IAZ060-094-KSZ022-034>040-054-083-096-NEZ052-066-093-231300-
...KANSAS...SOUTHEAST NEBRASKA AND IOWA...

CITY           SKY/WX    TMP DP  RH WIND       PRES   REMARKS
TOPEKA         CLEAR     33  23  66 CALM      30.07R
6HR MIN TEMP:  31; 6HR MAX TEMP:  40;

MANHATTAN      CLEAR     33  23  66 CALM      30.07R
EMPORIA        CLEAR     31  22  69 SW5       30.07R WCI  26
CHANUTE        CLEAR     34  22  61 S8        30.11S WCI  27
WICHITA        CLOUDY    32  24  72 S7        30.07F WCI  26
OMAHA          CLOUDY    30  22  72 SE3       30.00S
LINCOLN        CLEAR     33  26  75 CALM      30.04R
FALLS CITY     CLEAR     33  22  63 CALM      30.02R
LAMONI         CLEAR     29  21  72 SW9       29.98S WCI  20
DES MOINES     CLOUDY    31  20  63 SW8       29.96F WCI  23

$$





USA.gov is the U.S. government's official web portal to all federal, state and local government web resources and services.